• In France
  • List of Countries
  • For 7 days
  • Water Temperature
  • Satellite Maps
  • Weather Map
  • Weather Widgets
  • user-avatar
    Login

    Hourly Weather Cimguda

    Today, 22 August, Wednesday

    Time Temperature Precipitation Wind Pressure Humidity
    00:00 +8°C° 0 mm 2 mps 584 mmHg 63%
    01:00 +8°C° 0 mm 2 mps 583 mmHg 61%
    02:00 +7°C° 0 mm 2 mps 583 mmHg 60%
    03:00 +8°C° 0 mm 2 mps 583 mmHg 59%
    04:00 +9°C° 0 mm 1 mps 584 mmHg 59%
    05:00 +10°C° 0 mm 1 mps 584 mmHg 59%
    06:00 +10°C° 0 mm 1 mps 584 mmHg 59%
    07:00 +12°C° 0.1 mm 1 mps 585 mmHg 56%
    08:00 +13°C° 0.1 mm 1 mps 586 mmHg 52%
    09:00 +15°C° 0.1 mm 1 mps 586 mmHg 49%
    10:00 +16°C° 0.1 mm 1 mps 586 mmHg 48%
    11:00 +18°C° 0.1 mm 1 mps 587 mmHg 47%
    12:00 +18°C° 0.1 mm 2 mps 587 mmHg 46%
    13:00 +18°C° 0.1 mm 2 mps 587 mmHg 47%
    14:00 +18°C° 0.1 mm 2 mps 587 mmHg 48%
    15:00 +18°C° 0.1 mm 2 mps 587 mmHg 49%
    16:00 +17°C° 0.3 mm 2 mps 586 mmHg 55%
    17:00 +16°C° 0.3 mm 1 mps 586 mmHg 62%
    18:00 +15°C° 0.3 mm 1 mps 585 mmHg 68%
    19:00 +14°C° 0.1 mm 1 mps 585 mmHg 71%
    20:00 +13°C° 0.1 mm 1 mps 585 mmHg 74%
    21:00 +12°C° 0.1 mm 1 mps 585 mmHg 77%
    22:00 +11°C° 0.1 mm 1 mps 585 mmHg 78%
    23:00 +11°C° 0.1 mm 1 mps 585 mmHg 78%

    Tomorrow, 23 August, Thursday

    Time Temperature Precipitation Wind Pressure Humidity
    00:00 +10°C° 0.1 mm 1 mps 584 mmHg 79%
    01:00 +10°C° 0 mm 1 mps 584 mmHg 79%
    02:00 +10°C° 0 mm 1 mps 584 mmHg 79%
    03:00 +9°C° 0 mm 1 mps 584 mmHg 79%
    04:00 +10°C° 0 mm 1 mps 584 mmHg 78%
    05:00 +10°C° 0 mm 1 mps 585 mmHg 78%
    06:00 +10°C° 0 mm 1 mps 585 mmHg 77%
    07:00 +12°C° 0 mm 1 mps 586 mmHg 70%
    08:00 +14°C° 0 mm 1 mps 587 mmHg 64%
    09:00 +16°C° 0 mm 1 mps 588 mmHg 57%
    10:00 +16°C° 0.1 mm 1 mps 588 mmHg 56%
    11:00 +17°C° 0.1 mm 2 mps 588 mmHg 55%
    12:00 +18°C° 0.1 mm 2 mps 588 mmHg 54%
    13:00 +17°C° 0.1 mm 2 mps 588 mmHg 55%
    14:00 +17°C° 0.1 mm 2 mps 588 mmHg 56%
    15:00 +17°C° 0.1 mm 2 mps 588 mmHg 57%
    16:00 +16°C° 0 mm 1 mps 587 mmHg 60%
    17:00 +16°C° 0 mm 1 mps 587 mmHg 63%
    18:00 +15°C° 0 mm 1 mps 587 mmHg 66%
    19:00 +13°C° 0 mm 1 mps 586 mmHg 69%
    20:00 +12°C° 0 mm 1 mps 586 mmHg 72%
    21:00 +11°C° 0 mm 1 mps 586 mmHg 76%
    22:00 +10°C° 0 mm 1 mps 586 mmHg 76%
    23:00 +10°C° 0 mm 1 mps 586 mmHg 76%

    Day after tomorrow, 24 August, Friday

    Time Temperature Precipitation Wind Pressure Humidity
    00:00 +9°C° 0 mm 1 mps 585 mmHg 76%
    01:00 +9°C° 0 mm 1 mps 585 mmHg 76%
    02:00 +9°C° 0 mm 1 mps 585 mmHg 75%
    03:00 +8°C° 0 mm 2 mps 585 mmHg 75%
    04:00 +8°C° 0 mm 2 mps 585 mmHg 74%
    05:00 +8°C° 0 mm 2 mps 585 mmHg 74%
    06:00 +9°C° 0 mm 2 mps 586 mmHg 73%
    07:00 +12°C° 0 mm 2 mps 587 mmHg 66%
    08:00 +14°C° 0 mm 2 mps 588 mmHg 60%
    09:00 +16°C° 0 mm 2 mps 589 mmHg 53%
    10:00 +17°C° 0 mm 2 mps 589 mmHg 52%
    11:00 +18°C° 0 mm 2 mps 589 mmHg 51%
    12:00 +19°C° 0 mm 3 mps 589 mmHg 50%
    13:00 +19°C° 0.1 mm 3 mps 589 mmHg 51%
    14:00 +19°C° 0.1 mm 3 mps 588 mmHg 51%
    15:00 +19°C° 0.1 mm 3 mps 588 mmHg 52%
    16:00 +17°C° 0.1 mm 2 mps 588 mmHg 57%
    17:00 +16°C° 0.1 mm 2 mps 587 mmHg 61%
    18:00 +15°C° 0.1 mm 2 mps 586 mmHg 65%
    19:00 +14°C° 0 mm 2 mps 586 mmHg 66%
    20:00 +12°C° 0 mm 2 mps 586 mmHg 67%
    21:00 +10°C° 0 mm 2 mps 585 mmHg 68%
    22:00 +9°C° 0 mm 2 mps 585 mmHg 68%
    23:00 +9°C° 0 mm 2 mps 585 mmHg 67%

    25 August, Saturday

    Time Temperature Precipitation Wind Pressure Humidity
    00:00 +9°C° 0 mm 2 mps 584 mmHg 67%
    01:00 +9°C° 0 mm 2 mps 584 mmHg 68%
    02:00 +8°C° 0 mm 2 mps 584 mmHg 69%
    03:00 +8°C° 0 mm 2 mps 584 mmHg 71%
    04:00 +10°C° 0 mm 1 mps 584 mmHg 71%
    05:00 +10°C° 0 mm 1 mps 584 mmHg 71%
    06:00 +10°C° 0 mm 1 mps 584 mmHg 72%
    07:00 +13°C° 0 mm 1 mps 585 mmHg 65%
    08:00 +15°C° 0 mm 1 mps 586 mmHg 58%
    09:00 +18°C° 0 mm 1 mps 587 mmHg 52%
    10:00 +18°C° 0.1 mm 2 mps 587 mmHg 50%
    11:00 +19°C° 0.1 mm 2 mps 587 mmHg 49%
    12:00 +20°C° 0.1 mm 2 mps 587 mmHg 48%
    13:00 +20°C° 0.4 mm 2 mps 587 mmHg 49%
    14:00 +20°C° 0.4 mm 2 mps 587 mmHg 50%
    15:00 +19°C° 0.4 mm 2 mps 586 mmHg 50%
    16:00 +18°C° 0.2 mm 2 mps 586 mmHg 55%
    17:00 +18°C° 0.2 mm 1 mps 585 mmHg 59%
    18:00 +16°C° 0.2 mm 1 mps 585 mmHg 64%
    19:00 +15°C° 0 mm 1 mps 584 mmHg 67%
    20:00 +13°C° 0 mm 1 mps 584 mmHg 70%
    21:00 +12°C° 0 mm 1 mps 584 mmHg 73%
    22:00 +11°C° 0 mm 1 mps 583 mmHg 72%
    23:00 +11°C° 0 mm 1 mps 583 mmHg 72%

    26 August, Sunday

    Time Temperature Precipitation Wind Pressure Humidity
    00:00 +11°C° 0 mm 1 mps 583 mmHg 71%
    01:00 +10°C° 0 mm 1 mps 583 mmHg 69%
    02:00 +10°C° 0 mm 1 mps 582 mmHg 67%
    03:00 +10°C° 0 mm 1 mps 582 mmHg 65%
    04:00 +10°C° 0 mm 1 mps 582 mmHg 62%
    05:00 +10°C° 0 mm 1 mps 582 mmHg 59%
    06:00 +11°C° 0 mm 1 mps 583 mmHg 56%
    07:00 +13°C° 0 mm 1 mps 584 mmHg 51%
    08:00 +15°C° 0 mm 1 mps 585 mmHg 46%
    09:00 +19°C° 0 mm 1 mps 586 mmHg 41%
    10:00 +19°C° 0 mm 2 mps 586 mmHg 40%
    11:00 +20°C° 0 mm 2 mps 586 mmHg 39%
    12:00 +21°C° 0 mm 2 mps 586 mmHg 39%
    13:00 +21°C° 0 mm 2 mps 586 mmHg 39%
    14:00 +21°C° 0 mm 2 mps 586 mmHg 39%
    15:00 +21°C° 0 mm 2 mps 585 mmHg 39%
    16:00 +19°C° 0 mm 2 mps 585 mmHg 44%
    17:00 +18°C° 0 mm 2 mps 584 mmHg 48%
    18:00 +16°C° 0 mm 1 mps 584 mmHg 53%
    19:00 +15°C° 0 mm 1 mps 583 mmHg 54%
    20:00 +13°C° 0 mm 1 mps 583 mmHg 55%
    21:00 +12°C° 0 mm 2 mps 582 mmHg 56%
    22:00 +10°C° 0 mm 2 mps 582 mmHg 52%
    23:00 +10°C° 0 mm 2 mps 582 mmHg 48%

    27 August, Monday

    Time Temperature Precipitation Wind Pressure Humidity
    00:00 +10°C° 0 mm 2 mps 582 mmHg 45%
    01:00 +11°C° 0 mm 1 mps 582 mmHg 44%
    02:00 +10°C° 0 mm 1 mps 581 mmHg 44%
    03:00 +10°C° 0 mm 1 mps 581 mmHg 43%
    04:00 +11°C° 0 mm 1 mps 582 mmHg 46%
    05:00 +11°C° 0 mm 1 mps 582 mmHg 48%
    06:00 +11°C° 0 mm 1 mps 582 mmHg 51%
    07:00 +13°C° 0 mm 1 mps 583 mmHg 48%
    08:00 +15°C° 0 mm 1 mps 584 mmHg 45%
    09:00 +19°C° 0 mm 1 mps 585 mmHg 42%
    10:00 +18°C° 0 mm 2 mps 585 mmHg 42%
    11:00 +19°C° 0 mm 2 mps 585 mmHg 42%
    12:00 +20°C° 0 mm 2 mps 586 mmHg 42%
    13:00 +20°C° 0.5 mm 2 mps 585 mmHg 43%
    14:00 +20°C° 0.5 mm 2 mps 585 mmHg 44%
    15:00 +19°C° 0.5 mm 2 mps 585 mmHg 46%
    16:00 +18°C° 0.3 mm 2 mps 585 mmHg 51%
    17:00 +18°C° 0.3 mm 1 mps 584 mmHg 55%
    18:00 +15°C° 0.3 mm 1 mps 584 mmHg 60%
    19:00 +14°C° 0.1 mm 1 mps 584 mmHg 64%
    20:00 +13°C° 0.1 mm 1 mps 583 mmHg 67%
    21:00 +11°C° 0.1 mm 1 mps 583 mmHg 71%
    22:00 +11°C° 0 mm 1 mps 583 mmHg 70%
    23:00 +11°C° 0 mm 1 mps 583 mmHg 69%
    Show more